Regional Weather Roundup
Issued by NWS

Home | Current Version | Previous Version | Text Only | Print | Product List | Glossary Off
Versions: 1 2 3 4 5 6 7 8 9 10 11 12 13 14 15 16 17 18 19 20 21 22 23 24 25 26 27 28 29 30 31 32 33 34 35 36 37 38 39 40 41 42 43 44 45 46 47 48 49 50

000
ASUS43 KIND 041609
RWRIN

WEATHER ROUNDUP FOR INDIANA
NATIONAL WEATHER SERVICE INDIANAPOLIS IN
1200 PM EDT SAT JUL 04 2015

NOTE: "FAIR" INDICATES FEW OR NO CLOUDS BELOW 12,000 FEET WITH NO
SIGNIFICANT WEATHER AND/OR OBSTRUCTIONS TO VISIBILITY.

* - STATION DOES NOT REPORT WEATHER SUCH AS PRECIPITATION OR FOG.

+ - STATION NOT QUALITY CONTROLLED BY THE NATIONAL WEATHER SERVICE.
    USE DATA WITH CAUTION...ESPECIALLY DEWPOINT AND RELATIVE
    HUMIDITY OBSERVATIONS.

INZ001>003-010>013-019-020-041700-
NORTHWEST INDIANA

CITY           SKY/WX    TMP DP  RH WIND       PRES   REMARKS
GARY /AIRPORT/ MOSUNNY  N/A N/A N/A CALM      30.02R
KNOX *+        SUNNY     72  54  53 CALM      30.01S
LA PORTE +     SUNNY     74  60  59 CALM      30.03R
MICHIGAN CITY+ SUNNY     73  55  53 CALM      30.02S
MONTICELLO +   SUNNY     73  57  58 CALM      30.02S
RENSSELAER +   SUNNY     73  61  64 SW5       30.03R
VALPARAISO     SUNNY     74  60  61 CALM      30.03R

$$

LMZ046-743>745-041700-
SOUTHERN LAKE MICHIGAN

STATION/POSITION TIME  TEMP    WIND        PRES    WAVE
                       AIR SEA DIR/SP/G            HT
                 (UTC) (F)     (DEG/KT/KT) (MB)    (FT)
BURNS HARBOR     1600   69     320/  2/  4 1016.9S
MICHIGAN CITY    1600   68     240/  4/  4   N/A
5NW MICH CITY    1600   66 65  280/  2/  4   N/A     0

$$

INZ004-005-014>016-021>024-041700-
NORTH CENTRAL INDIANA

CITY           SKY/WX    TMP DP  RH WIND       PRES   REMARKS
ELKHART        SUNNY     73  55  53 CALM      30.03
GOSHEN         SUNNY     73  56  54 NW6       30.02R
LOGANSPORT +   SUNNY     72  52  49 CALM      30.03S
PERU/GRISSOM   SUNNY     73  60  63 VRB1      30.02R
ROCHESTER +    SUNNY     77  57  50 CALM      30.03R
SOUTH BEND     SUNNY     75  58  55 N6        30.02S
WARSAW +         N/A     72  55  56 NW5       30.02R

$$

INZ006>009-017-018-025>027-041700-
NORTHEAST INDIANA

CITY           SKY/WX    TMP DP  RH WIND       PRES   REMARKS
ANGOLA *+        N/A     75  66  73 NW6       30.01R
AUBURN +       MOSUNNY   73  55  53 CALM      30.03R
FORT WAYNE     PTSUNNY   75  59  57 CALM      30.02S
HUNTINGTON +   MOSUNNY   73  58  57 CALM      30.02R

$$

INZ028-029-035-036-043>045-051>053-041700-
WEST CENTRAL INDIANA

CITY           SKY/WX    TMP DP  RH WIND       PRES   REMARKS
CRAWFORDSVL +  SUNNY     73  53  49 CALM      30.03S
GREENCASTLE +  MOSUNNY   73  55  53 N3        30.04R
LAFAYETTE      SUNNY     73  61  65 W3        30.02S
TERRE HAUTE    MOSUNNY   76  61  59 CALM      30.03R

$$

INZ030>032-037>040-046>048-054>057-064-065-041700-
CENTRAL INDIANA

CITY           SKY/WX    TMP DP  RH WIND       PRES   REMARKS
CP ATTERBURY + MOSUNNY   75  61  60 CALM      30.03R
FISHERS *+     MOSUNNY   73  61  64 CALM      30.03
FRANKFORT +    SUNNY     74  59  59 NE3       30.05R
GREENWOOD *+   MOSUNNY   73  59  60 CALM      30.03S
INDIANAPOLIS   MOSUNNY   76  57  51 VRB3      30.01S
-EAGLE CREEK   SUNNY     75  61  61 NW5       30.02R
KOKOMO *+      SUNNY     73  59  60 CALM      30.02S
MARION +       SUNNY     73  58  60 CALM      30.03S
MT COMFORT *+  SUNNY     75  50  41 CALM      30.03S
SHELBYVILLE    MOSUNNY   77  63  61 VRB5      30.02R
ZIONSVILLE +   SUNNY     74  58  58 CALM      30.04S

$$

INZ033-034-041-042-049-050-058-059-041700-
EAST CENTRAL INDIANA

CITY           SKY/WX    TMP DP  RH WIND       PRES   REMARKS
MUNCIE         MOSUNNY   75  58  55 VRB3      30.03R

$$

INZ060-061-067>069-081>083-085>088-041700-
SOUTHWEST INDIANA

CITY           SKY/WX    TMP DP  RH WIND       PRES   REMARKS
EVANSVILLE     PTSUNNY   79  66  64 NE8       30.01S
HUNTINGBURG *+ PTSUNNY   75  64  69 CALM      30.02R
WASHINGTON +   SUNNY     77  64  64 CALM      30.01S

$$

INZ062-063-066-070>080-084-089>092-041700-
SOUTH CENTRAL AND SOUTHEAST INDIANA

CITY           SKY/WX    TMP DP  RH WIND       PRES   REMARKS
BLOOMINGTON    MOSUNNY   77  63  61 CALM      30.02S
MADISON *+     CLOUDY    73  63  68 CALM      30.04S
NORTH VERNON + PTSUNNY   75  64  69 E3        30.03S
SEYMOUR +      MOSUNNY   77  64  65 CALM      30.02R

$$



USA.gov is the U.S. government's official web portal to all federal, state and local government web resources and services.